Tracking 19281 objects as of 17-Nov-2018
HD Live streaming from Space Station
objects crossing your sky now

METEOR 2-1

Track METEOR 2-1 now!
10-day predictions
METEOR 2-1 is classified as:


NORAD ID: 8026
Int'l Code: 1975-064A
Perigee: 848.9 km
Apogee: 882.2 km
Inclination: 81.3 °
Period: 102.1 minutes
Semi major axis: 7236 km
RCS: 5.6919 m2 (large)
Launch date: July 11, 1975
Source: Commonwealth of Independent States (former USSR) (CIS)
Launch site: PLESETSK MISSILE AND SPACE COMPLEX (PKMTR)
aabbcc
Your satellite tracking list
Your tracking list is empty




NASA's NSSDC Master Catalog

Two Line Element Set (TLE):
1  8026U 75064A   18320.62544875 -.00000013 +00000-0 -14554-4 0  9992
2  8026 081.2792 190.1439 0023021 149.3014 210.9509 14.10286229228928
Source of the keplerian elements: AFSPC